{"data":{"norad_id":65050,"intl_designator":"2025-162H","name":"HULIANWANG DIGUI-47","alt_names":[],"object_type":"PAYLOAD","status":"ACTIVE","operator":null,"country":"PRC","launch_date":"2025-07-30","launch_site_code":"WSC","launch_vehicle":null,"mission":null,"orbit_class":"UNKNOWN","rcs_meters":null,"size_class":null,"mass_kg":null,"dimensions":null,"purposes":[],"wikipedia_slug":null,"has_3d_model":false,"image_url":null,"decayed_at":null,"tle_current":{"epoch":"2026-05-25T02:27:55.566144Z","epoch_age_seconds":62837,"freshness":"FRESH","line1":"1 65050U 25162H   26145.10272646 -.00000089  00000+0  76009-4 0  9991","line2":"2 65050  50.0043 348.3055 0000522  43.7554 316.3359 13.29323053 40291","mean_motion":13.29323053,"eccentricity":5.22e-5,"inclination_deg":50.0043,"raan_deg":348.3055,"arg_perigee_deg":43.7554,"mean_anomaly_deg":316.3359,"bstar":7.6009e-5,"rev_number":4029,"period_min":108.32581265707,"perigee_km":1148.9247638638,"apogee_km":1149.7106301342,"semimajor_km":7527.454696999,"source":"CELESTRAK","updated_at":"2026-05-25T13:38:05.088814Z"}}}